SWA456 KLGB-KSJC

Flight info

Callsign SWA456
Flight time N/A
Altitude 32000
Route VTU RZS SCTRR TROXX SILCN6
Aircraft B738/M-SADE2E3GIJ4RWZ/LB1D1

Departure

Time 2026-05-07 20:51
Airport Long Beach International Airport (KLGB)

Arrival

Time N/A
Airport Norman Y. Mineta San Jose International Airport (KSJC)
Time Latitude Longitude Altitude Speed Heading
2026-05-07 20:27 33.81860 -118.14604 44 ft 0 kts 90°
2026-05-07 20:35 33.81860 -118.14610 44 ft 4 kts 90°
2026-05-07 20:35 33.81860 -118.14643 44 ft 4 kts 90°
2026-05-07 20:35 33.81860 -118.14671 44 ft 4 kts 83°
2026-05-07 20:36 33.81851 -118.14696 44 ft 4 kts 23°
2026-05-07 20:36 33.81828 -118.14701 44 ft 1 kts
2026-05-07 20:36 33.81823 -118.14701 42 ft 0 kts
2026-05-07 20:48 33.81841 -118.14700 43 ft 8 kts
2026-05-07 20:48 33.81909 -118.14701 44 ft 11 kts 359°
2026-05-07 20:48 33.81966 -118.14700 44 ft 13 kts
2026-05-07 20:48 33.82088 -118.14699 44 ft 13 kts 359°
2026-05-07 20:49 33.82158 -118.14657 44 ft 12 kts 76°
2026-05-07 20:49 33.82162 -118.14558 44 ft 12 kts 89°
2026-05-07 20:49 33.82170 -118.14465 44 ft 11 kts 70°
2026-05-07 20:49 33.82215 -118.14391 43 ft 11 kts 32°
2026-05-07 20:50 33.82270 -118.14420 43 ft 10 kts 282°
2026-05-07 20:50 33.82271 -118.14450 43 ft 0 kts 269°
2026-05-07 20:50 33.82268 -118.14558 43 ft 41 kts 269°
2026-05-07 20:50 33.82273 -118.15219 43 ft 115 kts 269°
2026-05-07 20:51 33.82228 -118.16383 222 ft 154 kts 265°
2026-05-07 20:51 33.82194 -118.17704 821 ft 171 kts 267°
2026-05-07 20:51 33.82194 -118.17721 826 ft 172 kts 267°
2026-05-07 20:51 33.82195 -118.18378 911 ft 190 kts 268°
2026-05-07 20:52 33.82299 -118.20042 1634 ft 193 kts 272°
2026-05-07 20:52 33.82407 -118.21579 2337 ft 202 kts 284°
2026-05-07 20:52 33.82946 -118.23261 2537 ft 228 kts 293°
2026-05-07 20:52 33.83599 -118.25066 2822 ft 247 kts 293°
2026-05-07 20:53 33.84307 -118.27031 3231 ft 263 kts 293°
2026-05-07 20:53 33.84800 -118.28407 3754 ft 264 kts 293°
2026-05-07 20:53 33.85517 -118.30417 4767 ft 258 kts 292°
2026-05-07 20:53 33.86225 -118.32408 5542 ft 263 kts 292°
2026-05-07 20:54 33.86950 -118.34455 6239 ft 269 kts 292°
2026-05-07 20:54 33.87684 -118.36534 6991 ft 272 kts 293°
2026-05-07 20:54 33.88431 -118.38651 7734 ft 277 kts 293°
2026-05-07 20:54 33.89189 -118.40804 8516 ft 282 kts 294°
2026-05-07 20:55 33.89961 -118.43000 9284 ft 289 kts 294°
2026-05-07 20:55 33.90754 -118.45257 10094 ft 294 kts 295°
2026-05-07 20:55 33.91567 -118.47572 10523 ft 313 kts 295°
2026-05-07 20:55 33.92452 -118.50089 10752 ft 337 kts 295°
2026-05-07 20:56 33.93379 -118.52735 11366 ft 346 kts 295°
2026-05-07 20:56 33.94319 -118.55425 12127 ft 350 kts 294°
2026-05-07 20:56 33.95262 -118.58129 12917 ft 354 kts 294°
2026-05-07 20:56 33.96223 -118.60885 13705 ft 359 kts 294°
2026-05-07 20:57 33.97196 -118.63679 14404 ft 364 kts 294°
2026-05-07 20:57 33.98181 -118.66507 15161 ft 368 kts 294°
2026-05-07 20:57 33.99157 -118.69313 15960 ft 371 kts 295°
2026-05-07 20:57 34.00177 -118.72245 16748 ft 375 kts 295°
2026-05-07 20:58 34.01193 -118.75169 17487 ft 380 kts 295°
2026-05-07 20:58 34.02220 -118.78127 18227 ft 385 kts 295°
2026-05-07 20:58 34.03260 -118.81128 18855 ft 390 kts 295°
2026-05-07 20:58 34.04308 -118.84154 19577 ft 392 kts 295°
2026-05-07 20:59 34.05356 -118.87184 20322 ft 394 kts 295°
2026-05-07 20:59 34.06417 -118.90252 21021 ft 397 kts 294°
2026-05-07 20:59 34.07459 -118.93268 21653 ft 400 kts 294°
2026-05-07 20:59 34.08548 -118.96424 22294 ft 404 kts 294°
2026-05-07 21:00 34.09632 -118.99569 22939 ft 408 kts 295°
2026-05-07 21:00 34.10725 -119.02741 23567 ft 411 kts 294°
2026-05-07 21:00 34.11916 -119.05875 24104 ft 412 kts 301°
2026-05-07 21:00 34.13424 -119.08774 24658 ft 414 kts 306°
2026-05-07 21:01 34.15043 -119.11662 25167 ft 417 kts 306°
2026-05-07 21:01 34.16689 -119.14555 25668 ft 420 kts 307°
2026-05-07 21:01 34.18343 -119.17474 26135 ft 423 kts 306°
2026-05-07 21:01 34.20003 -119.20432 26624 ft 426 kts 306°
2026-05-07 21:02 34.21656 -119.23403 27201 ft 426 kts 305°
2026-05-07 21:02 34.23296 -119.26371 27924 ft 423 kts 305°
2026-05-07 21:02 34.24916 -119.29314 28674 ft 419 kts 305°
2026-05-07 21:02 34.26523 -119.32240 29299 ft 418 kts 305°
2026-05-07 21:03 34.28133 -119.35175 29884 ft 418 kts 305°
2026-05-07 21:03 34.29738 -119.38102 30444 ft 417 kts 305°
2026-05-07 21:03 34.31333 -119.41015 30994 ft 415 kts 305°
2026-05-07 21:03 34.32927 -119.43926 31516 ft 414 kts 305°
2026-05-07 21:04 34.34512 -119.46823 31984 ft 414 kts 305°
2026-05-07 21:04 34.37692 -119.52641 32054 ft 413 kts 305°
2026-05-07 21:05 34.40849 -119.58428 32071 ft 409 kts 306°
2026-05-07 21:05 34.43993 -119.64146 32050 ft 407 kts 306°
2026-05-07 21:06 34.47088 -119.69857 32036 ft 406 kts 306°
2026-05-07 21:06 34.52314 -119.78056 32061 ft 405 kts 321°
2026-05-07 21:07 34.54575 -119.80079 32064 ft 404 kts 328°
2026-05-07 21:07 34.59313 -119.83791 32056 ft 406 kts 329°
2026-05-07 21:08 34.64086 -119.87456 32031 ft 406 kts 328°
2026-05-07 21:08 34.68828 -119.91151 32048 ft 404 kts 328°
2026-05-07 21:09 34.73531 -119.94854 32044 ft 402 kts 328°
2026-05-07 21:09 34.78211 -119.98556 32059 ft 401 kts 328°
2026-05-07 21:10 34.82599 -120.02034 32061 ft 401 kts 328°
2026-05-07 21:10 34.87275 -120.05744 32056 ft 401 kts 328°
2026-05-07 21:11 34.91950 -120.09457 32068 ft 402 kts 328°
2026-05-07 21:11 34.98977 -120.15050 32071 ft 403 kts 328°
2026-05-07 21:12 35.03668 -120.18790 32074 ft 402 kts 328°
2026-05-07 21:12 35.08351 -120.22528 32075 ft 402 kts 328°
2026-05-07 21:13 35.13026 -120.26266 32076 ft 401 kts 328°
2026-05-07 21:13 35.17692 -120.30001 32074 ft 401 kts 328°
2026-05-07 21:14 35.22329 -120.33719 32076 ft 401 kts 328°
2026-05-07 21:14 35.27028 -120.37491 32077 ft 402 kts 328°
2026-05-07 21:15 35.31702 -120.41249 32077 ft 403 kts 327°
2026-05-07 21:15 35.36382 -120.45017 32083 ft 402 kts 327°
2026-05-07 21:16 35.41055 -120.48785 32085 ft 402 kts 327°
2026-05-07 21:16 35.45703 -120.52538 32098 ft 402 kts 327°
2026-05-07 21:17 35.50377 -120.56317 32092 ft 403 kts 327°
2026-05-07 21:17 35.55073 -120.60087 32102 ft 403 kts 328°
2026-05-07 21:18 35.59810 -120.63789 32102 ft 404 kts 328°
2026-05-07 21:18 35.64558 -120.67495 32101 ft 404 kts 328°
2026-05-07 21:19 35.69309 -120.71220 32099 ft 406 kts 328°
2026-05-07 21:19 35.71697 -120.73097 31914 ft 408 kts 328°
2026-05-07 21:19 35.74085 -120.74977 31585 ft 405 kts 328°
2026-05-07 21:20 35.76452 -120.76842 31156 ft 402 kts 328°
2026-05-07 21:20 35.78801 -120.78693 30765 ft 399 kts 328°
2026-05-07 21:20 35.81128 -120.80529 30372 ft 397 kts 328°
2026-05-07 21:20 35.83451 -120.82363 29953 ft 395 kts 328°
2026-05-07 21:21 35.85756 -120.84183 29506 ft 393 kts 328°
2026-05-07 21:21 35.88047 -120.85994 29071 ft 389 kts 328°
2026-05-07 21:21 35.90317 -120.87790 28654 ft 386 kts 328°
2026-05-07 21:21 35.92576 -120.89578 28247 ft 383 kts 328°
2026-05-07 21:22 35.94810 -120.91348 27841 ft 380 kts 328°
2026-05-07 21:22 35.97028 -120.93106 27459 ft 378 kts 328°
2026-05-07 21:22 35.99231 -120.94852 27055 ft 375 kts 328°
2026-05-07 21:22 36.01411 -120.96609 26671 ft 373 kts 326°
2026-05-07 21:23 36.03503 -120.98503 26297 ft 371 kts 323°
2026-05-07 21:23 36.05533 -121.00451 25910 ft 369 kts 322°
2026-05-07 21:23 36.07549 -121.02413 25521 ft 368 kts 322°
2026-05-07 21:23 36.09559 -121.04365 25145 ft 366 kts 322°
2026-05-07 21:24 36.11562 -121.06297 24750 ft 365 kts 323°
2026-05-07 21:24 36.13563 -121.08219 24370 ft 364 kts 323°
2026-05-07 21:24 36.15540 -121.10110 23978 ft 363 kts 323°
2026-05-07 21:24 36.17536 -121.12017 23586 ft 362 kts 323°
2026-05-07 21:25 36.19530 -121.13920 23152 ft 361 kts 323°
2026-05-07 21:25 36.21511 -121.15812 22734 ft 359 kts 323°
2026-05-07 21:25 36.23503 -121.17715 22347 ft 356 kts 323°
2026-05-07 21:25 36.25429 -121.19557 21984 ft 354 kts 323°
2026-05-07 21:26 36.27374 -121.21419 21608 ft 351 kts 323°
2026-05-07 21:26 36.29297 -121.23259 21248 ft 349 kts 323°
2026-05-07 21:26 36.31211 -121.25093 20871 ft 346 kts 323°
2026-05-07 21:26 36.33112 -121.26915 20511 ft 344 kts 323°
2026-05-07 21:27 36.35001 -121.28726 20153 ft 342 kts 323°
2026-05-07 21:27 36.36877 -121.30530 19698 ft 344 kts 323°
2026-05-07 21:27 36.38773 -121.32354 19225 ft 345 kts 323°
2026-05-07 21:27 36.40677 -121.34190 18732 ft 347 kts 323°
2026-05-07 21:28 36.42590 -121.36035 18208 ft 349 kts 323°
2026-05-07 21:28 36.44512 -121.37889 17671 ft 350 kts 323°
2026-05-07 21:28 36.46439 -121.39749 17160 ft 351 kts 323°
2026-05-07 21:28 36.48360 -121.41605 16669 ft 350 kts 323°
2026-05-07 21:29 36.50358 -121.43336 16153 ft 350 kts 335°
2026-05-07 21:29 36.52642 -121.44377 15665 ft 349 kts 342°
2026-05-07 21:29 36.54951 -121.45305 15142 ft 350 kts 342°
2026-05-07 21:29 36.57274 -121.46243 14656 ft 349 kts 342°
2026-05-07 21:30 36.59565 -121.47182 14161 ft 344 kts 341°
2026-05-07 21:30 36.61817 -121.48119 13637 ft 340 kts 341°
2026-05-07 21:30 36.64049 -121.49056 13128 ft 336 kts 340°
2026-05-07 21:30 36.66243 -121.49981 12643 ft 331 kts 340°
2026-05-07 21:31 36.68407 -121.50896 12187 ft 326 kts 340°
2026-05-07 21:31 36.70545 -121.51801 11729 ft 322 kts 340°
2026-05-07 21:31 36.72658 -121.52695 11272 ft 319 kts 339°
2026-05-07 21:31 36.74743 -121.53579 10897 ft 313 kts 339°
2026-05-07 21:32 36.76781 -121.54443 10577 ft 307 kts 339°
2026-05-07 21:32 36.78783 -121.55293 10212 ft 302 kts 339°
2026-05-07 21:32 36.80758 -121.56132 9919 ft 295 kts 339°
2026-05-07 21:32 36.82659 -121.56940 9568 ft 290 kts 339°
2026-05-07 21:33 36.84554 -121.57748 9274 ft 284 kts 339°
2026-05-07 21:33 36.86394 -121.58530 9159 ft 272 kts 339°
2026-05-07 21:33 36.88135 -121.59270 9046 ft 257 kts 338°
2026-05-07 21:33 36.89780 -121.59970 8956 ft 244 kts 338°
2026-05-07 21:34 36.91343 -121.60635 8885 ft 231 kts 338°
2026-05-07 21:34 36.92830 -121.61269 8788 ft 219 kts 338°
2026-05-07 21:34 36.94242 -121.61867 8633 ft 210 kts 338°
2026-05-07 21:34 36.95609 -121.62448 8369 ft 207 kts 338°
2026-05-07 21:35 36.96968 -121.63025 8122 ft 205 kts 338°
2026-05-07 21:35 36.98319 -121.63600 7875 ft 204 kts 338°
2026-05-07 21:35 36.99660 -121.64171 7605 ft 203 kts 338°
2026-05-07 21:35 37.00996 -121.64738 7344 ft 201 kts 338°
2026-05-07 21:36 37.02312 -121.65297 7088 ft 200 kts 338°
2026-05-07 21:36 37.03632 -121.65859 6743 ft 204 kts 339°
2026-05-07 21:36 37.05017 -121.66449 6233 ft 215 kts 338°
2026-05-07 21:36 37.06435 -121.67053 5939 ft 215 kts 339°
2026-05-07 21:37 37.07845 -121.67652 5690 ft 211 kts 339°
2026-05-07 21:37 37.09217 -121.68235 5474 ft 207 kts 339°
2026-05-07 21:37 37.10551 -121.68803 5252 ft 202 kts 340°
2026-05-07 21:37 37.11866 -121.69363 5070 ft 197 kts 340°
2026-05-07 21:38 37.13150 -121.69910 4875 ft 194 kts 340°
2026-05-07 21:38 37.14424 -121.70452 4676 ft 192 kts 340°
2026-05-07 21:38 37.15687 -121.70991 4472 ft 191 kts 340°
2026-05-07 21:38 37.16863 -121.71739 4286 ft 190 kts 323°
2026-05-07 21:39 37.17881 -121.72790 4115 ft 190 kts 318°
2026-05-07 21:39 37.18869 -121.73891 3925 ft 191 kts 318°
2026-05-07 21:39 37.19870 -121.74997 3754 ft 191 kts 318°
2026-05-07 21:39 37.20875 -121.76101 3539 ft 192 kts 318°
2026-05-07 21:40 37.21871 -121.77194 3348 ft 191 kts 318°
2026-05-07 21:40 37.22861 -121.78281 3144 ft 187 kts 318°
2026-05-07 21:40 37.23839 -121.79354 2947 ft 185 kts 319°
2026-05-07 21:40 37.24802 -121.80411 2752 ft 185 kts 318°
2026-05-07 21:41 37.25787 -121.81492 2556 ft 190 kts 318°